Location: Unspecified
(0.0000°N, 0.0000°E)
Time: 06:14:05
(UTC+00:00)

Vanguard 1 - Pass Details

Date: 13 December 2017
Orbit: 650 x 3833 km, 34.2° (Epoch: 19 July)

Event Time Altitude Azimuth Distance (km) Brightness Sun altitude
Rises 01:17:33 0° 206° (SSW) 5,116 13.9 -59.2°
Reaches altitude 10° 01:23:12 10° 183° (S) 4,774 13.8 -58.3°
Maximum altitude 01:30:19 15° 152° (SSE) 5,089 14.0 -57.1°
Drops below altitude 10° 01:39:14 10° 123° (ESE) 6,219 14.5 -55.5°
Sets 01:49:04 0° 103° (ESE) 7,763 15.1 -53.7°
